This is the latest recevied weather packets stored in our database for station/object IONIA-WX. If no packets are shown the sender has not sent any weather packets the latest 10 day(s).
| Time | Temp. | Humidity | Pressure | Rain* | Wind** | Luminosity | Snow |
|---|---|---|---|---|---|---|---|
| 1788372917 | 31.67° C | 53% | 984.8 hPa | 0 mm | - | - | - |
| 1788372021 | 31.67° C | 53% | 984.8 hPa | 0 mm | - | - | - |
| 1788371116 | 31.67° C | 59% | 984.9 hPa | 0 mm | - | - | - |
| 1788370217 | 31.11° C | 59% | 984.9 hPa | 0 mm | - | - | - |
| 1788369329 | 31.11° C | 59% | 984.8 hPa | 0 mm | - | - | - |
| 1788368420 | 30.56° C | 59% | 984.8 hPa | 0 mm | - | - | - |
| 1788367525 | 30.56° C | 64% | 985.4 hPa | 0 mm | - | - | - |
| 1788366617 | 30° C | 64% | 985.4 hPa | 0 mm | - | - | - |
| 1788365724 | 30° C | 64% | 985.4 hPa | 0 mm | - | - | - |
| 1788364822 | 29.44° C | 66% | 984.9 hPa | 0 mm | - | - | - |
| 1788363922 | 28.89° C | 73% | 985.6 hPa | 0 mm | - | - | - |
| 1788363022 | 28.33° C | 73% | 984.8 hPa | 0 mm | - | - | - |
| 1788362120 | 28.33° C | 73% | 984.8 hPa | 0 mm | - | - | - |
| 1788361226 | 27.78° C | 73% | 984.8 hPa | 0 mm | - | - | - |
| 1788360317 | 27.78° C | 76% | 984.8 hPa | 0 mm | - | - | - |
| 1788359420 | 27.78° C | 71% | 984.9 hPa | 0 mm | - | - | - |
| 1788358524 | 27.78° C | 71% | 984.9 hPa | 0 mm | - | - | - |
| 1788357619 | 27.22° C | 71% | 984.9 hPa | 0 mm | - | - | - |
| 1788356720 | 26.67° C | 81% | 984.2 hPa | 0 mm | - | - | - |
| 1788355822 | 26.11° C | 81% | 984.1 hPa | 0 mm | - | - | - |
| 1788354924 | 25.56° C | 81% | 984.1 hPa | 0 mm | - | - | - |
| 1788354022 | 25° C | 81% | 984.1 hPa | 0 mm | - | - | - |
| 1788353155 | -17.78° C | 100% | - | 0 mm | - | - | - |
| 1788352222 | 24.44° C | 91% | 983.9 hPa | 0 mm | - | - | - |
| 1788351322 | 23.89° C | 91% | 983.9 hPa | 0 mm | - | - | - |
* Rain latest hour (hover to see other rain measurements)
** Current wind speed in m/s (hover to see current wind gust speed)